TimeEST,TemperatureF,Dew PointF,Humidity,Sea Level PressureIn,VisibilityMPH,Wind Direction,Wind SpeedMPH,Gust SpeedMPH,PrecipitationIn,Events,Conditions,WindDirDegrees,DateUTC
12:53 AM,36.0,28.0,73,29.90,10.0,Calm,Calm,-,N/A,,Clear,0,2014-01-15 05:53:00
1:53 AM,35.1,27.0,72,29.90,10.0,Calm,Calm,-,N/A,,Clear,0,2014-01-15 06:53:00
2:53 AM,32.0,26.1,79,29.90,10.0,Calm,Calm,-,N/A,,Clear,0,2014-01-15 07:53:00
3:53 AM,32.0,27.0,82,29.89,10.0,North,3.5,-,N/A,,Clear,350,2014-01-15 08:53:00
4:53 AM,32.0,28.0,85,29.88,10.0,Calm,Calm,-,N/A,,Clear,0,2014-01-15 09:53:00
5:53 AM,33.1,27.0,78,29.88,10.0,North,3.5,-,N/A,,Clear,350,2014-01-15 10:53:00
6:53 AM,30.0,27.0,88,29.89,10.0,NNW,3.5,-,N/A,,Clear,330,2014-01-15 11:53:00
7:53 AM,32.0,27.0,82,29.90,10.0,WNW,5.8,-,N/A,,Clear,300,2014-01-15 12:53:00
8:53 AM,34.0,28.9,82,29.91,10.0,WNW,5.8,-,N/A,,Mostly Cloudy,300,2014-01-15 13:53:00
9:53 AM,41.0,30.0,65,29.91,10.0,NW,4.6,-,N/A,,Partly Cloudy,310,2014-01-15 14:53:00
10:53 AM,46.9,30.0,52,29.90,10.0,Calm,Calm,-,N/A,,Partly Cloudy,0,2014-01-15 15:53:00
11:53 AM,48.9,27.0,43,29.87,10.0,Calm,Calm,-,N/A,,Overcast,0,2014-01-15 16:53:00
12:53 PM,52.0,30.9,45,29.83,10.0,WNW,8.1,-,N/A,,Mostly Cloudy,290,2014-01-15 17:53:00
1:53 PM,51.1,30.0,44,29.82,10.0,WNW,9.2,-,N/A,,Overcast,300,2014-01-15 18:53:00
2:53 PM,44.1,32.0,63,29.85,10.0,NW,13.8,20.7,0.00,,Overcast,310,2014-01-15 19:53:00
3:53 PM,41.0,30.9,67,29.87,10.0,NNW,6.9,-,N/A,,Overcast,340,2014-01-15 20:53:00
4:53 PM,39.9,30.0,68,29.88,10.0,North,3.5,-,N/A,,Overcast,360,2014-01-15 21:53:00
5:53 PM,39.0,30.9,73,29.88,10.0,NNE,4.6,-,N/A,,Overcast,30,2014-01-15 22:53:00
6:53 PM,39.0,30.0,70,29.90,10.0,Calm,Calm,-,N/A,,Overcast,0,2014-01-15 23:53:00
7:53 PM,36.0,28.9,76,29.91,10.0,Calm,Calm,-,N/A,,Mostly Cloudy,0,2014-01-16 00:53:00
8:53 PM,35.1,28.9,78,29.92,10.0,Calm,Calm,-,N/A,,Partly Cloudy,0,2014-01-16 01:53:00
9:53 PM,34.0,28.0,79,29.92,10.0,NW,3.5,-,N/A,,Clear,320,2014-01-16 02:53:00
10:53 PM,33.1,21.9,64,29.91,10.0,NNW,3.5,-,N/A,,Clear,330,2014-01-16 03:53:00
11:53 PM,32.0,21.9,66,29.91,10.0,NW,4.6,-,N/A,,Clear,310,2014-01-16 04:53:00